SL-8 DEB, 2647

Orbit data source: Space-Track

SL-8 DEB, 2647 is space debris in LEO originally from a launch on Sat, 18 Sep 1965 UTC launched from the Tyuratam Missile And Space Complex (TTMTR). Debris objects in space refer to the collection of defunct objects orbiting the Earth. Examples of debris include non-operational satellites, rocket bodies, and fragments generated from explosions, collisions, or faulty payload assembly.

Loading next visibility...
Identifier
2647, 1965-073L
Orbit
LEO
Country
Flag of CISCIS
Related business
Manufacturer
Unknown
Mission
Spacecraft
Bus & Motor
Unknown
Mass
Unknown
Launch date (UTC)
1965-09-18 (61 years ago)
Launch vehicle
Unknown
Launch site
Tyuratam Missile And Space Complex (TTMTR)
Object type
Payload
Rocket body
Debris
Shape & HBR
Unknown shape, 0.1 m
Radar Cross Section
Small (<0.1 m²)

Expand to show TLE details & history
Last TLE update: 5 hours ago

TLE from 5 hours ago
0 SL-8 DEB
1  2647U 65073L   26119.83542969 -.00000039  00000-0  36846-3 0  9998
2  2647  56.0663 317.6746 0186523   2.6540  90.4220 12.43697081110610
Epoch: 2026-04-29T20:03Z
TLE epoch observation values (Epoch: 2026-04-29T20:03:01.125Z)
Latitude
55.84553°
Longitude
-101.57902°
Altitude
1,502.366 km
Speed
7.117 km/s
True Right ascension
03h 47m 51s
True Declination
55° 42' 03"
Sunlit
Object was in daylight at epoch
Visualization orbit readout
Latitude
Unknown
Longitude
Unknown
Altitude
Unknown
Speed
Unknown
Apparent Right ascension
Unknown
Apparent Declination
Unknown
Sunlit
N/A
Visualization observer readout
Local Sidereal Time
08:36:01
Azimuth
Unknown
Elevation
Unknown
Doppler factor
Unknown
Orbital elements
Apogee altitude
1,637.566 km
Perigee altitude
1,344.019 km
Semi-major axis
7,868.929 km
Eccentricity
0.01865
Inclination
56.0663°
RAAN
317.6746°
Arg. of periapsis
2.654°
True anomaly
92.55848°
Mean anomaly
90.422°
Eccentric anomaly
91.49034°
Mean motion
3.10935 °/min
Orbital period
115.78 mins
BSTAR
0.00036846
Loading maneuver chart data...
Computing Atmospheric mass density...
Loading historical data...
Loading historical data...
Loading historical data...
Loading historical data...
Loading historical data...
Loading historical data...
Loading historical data...

Documentation

Showing up to 5 results
|